Daggett-Barstow, CA

8:58 AM PDT on March 28, 2017 (GMT -0700)
Barstow-Daggett

Weather History for KDAG - October, 2012

Change the Weather History Date:

Thursday, October 4, 2012

  Actual Average Record
Temperature  
Mean Temperature 78 °F 73 °F  
Max Temperature 96 °F 87 °F 104 °F (1980)
Min Temperature 64 °F 59 °F 45 °F (1957)
Degree Days  
Heating Degree Days 0    
Cooling Degree Days 14    
Growing Degree Days 28 (Base 50)    
Moisture  
Dew Point 37 °F    
Average Humidity 24    
Maximum Humidity 36    
Minimum Humidity 12    
Precipitation  
Precipitation 0.00 in 0.00 in 0.13 in (1960)
Month to date precipitation 0.02  
Year to date precipitation 2.99  
Sea Level Pressure  
Sea Level Pressure 29.91 in    
Wind  
Wind Speed 13 mph (West)    
Max Wind Speed 23 mph    
Max Gust Speed 32 mph    
Visibility 10 miles    
Events      
T = Trace of Precipitation, MM = Missing Value Source: NWS Daily Summary

Daily Weather History Graph

Daily Weather History Graph

Search for Another Location

Airport or City:

Trip Planner

Search our weather history database for the weather conditions in past years. The results will help you decide how hot, cold, wet, or windy it might be!

Date:

Astronomy

Oct. 04, 2012 Rise Set
Actual Time 6:44 AM PDT 6:26 PM PDT
Civil Twilight 6:19 AM PDT 6:51 PM PDT
Nautical Twilight 5:50 AM PDT 7:20 PM PDT
Astronomical Twilight 5:20 AM PDT 7:49 PM PDT
Moon 9:16 PM PDT (10/4) 10:54 AM PDT (10/4)
Length of Visible Light 12h 32m
Length of Day
11h 41m
Waning Gibbous, 81% of the Moon is Illuminated
Oct 4
Waning Gibbous
Oct 8
Last Quarter
Oct 15
New
Oct 21
First Quarter
Oct 29
Full

Hourly Weather History & Observations

Time (PDT) Temp. Dew Point Humidity Pressure Visibility Wind Dir Wind Speed Gust Speed Precip Events Conditions
12:50 AM 75.0 °F 39.9 °F 28% 29.88 in 10.0 mi WNW 10.4 mph - N/A   Clear
1:50 AM 72.0 °F 39.9 °F 31% 29.90 in 10.0 mi WNW 12.7 mph - N/A   Clear
2:50 AM 71.1 °F 41.0 °F 34% 29.89 in 10.0 mi WNW 13.8 mph - N/A   Clear
3:50 AM 68.0 °F 37.9 °F 33% 29.90 in 10.0 mi WNW 5.8 mph - N/A   Clear
4:50 AM 66.9 °F 37.9 °F 34% 29.91 in 10.0 mi West 5.8 mph - N/A   Clear
5:50 AM 66.0 °F 37.0 °F 34% 29.92 in 10.0 mi WNW 8.1 mph - N/A   Clear
6:50 AM 64.9 °F 37.0 °F 36% 29.94 in 10.0 mi Calm Calm - N/A   Clear
7:50 AM 68.0 °F 37.9 °F 33% 29.96 in 10.0 mi SSE 3.5 mph - N/A   Clear
9:50 AM 82.0 °F 39.0 °F 22% 29.96 in 10.0 mi West 15.0 mph 21.9 mph N/A   Clear
10:50 AM 87.1 °F 37.0 °F 17% 29.95 in 10.0 mi WSW 21.9 mph 29.9 mph N/A   Clear
11:50 AM 91.0 °F 37.9 °F 15% 29.94 in 10.0 mi WSW 19.6 mph 28.8 mph N/A   Clear
12:50 PM 91.9 °F 37.0 °F 15% 29.92 in 10.0 mi West 20.7 mph - N/A   Clear
1:50 PM 93.9 °F 35.1 °F 13% 29.89 in 10.0 mi West 21.9 mph 32.2 mph N/A   Clear
3:50 PM 93.9 °F 34.0 °F 12% 29.87 in 10.0 mi West 20.7 mph 26.5 mph N/A   Clear
4:50 PM 93.0 °F 34.0 °F 12% 29.86 in 10.0 mi WSW 20.7 mph 27.6 mph N/A   Clear
5:50 PM 89.1 °F 35.1 °F 15% 29.88 in 10.0 mi WSW 23.0 mph 31.1 mph N/A   Clear
8:50 PM 80.1 °F 37.9 °F 22% 29.92 in 10.0 mi West 16.1 mph - N/A   Clear
9:50 PM 79.0 °F 39.0 °F 24% 29.92 in 10.0 mi WSW 23.0 mph 29.9 mph N/A   Clear
11:50 PM 75.9 °F 37.9 °F 25% 29.93 in 10.0 mi SW 13.8 mph 23.0 mph N/A   Clear